Location: Limerick
(52.6800°N, 8.6400°W)
Time: 20:36:06
(UTC+00:00)

ISS - All Passes

Search period start: 09 February 2016 00:00
Search period end: 19 February 2016 00:00
Orbit: 399 x 408 km, 51.6° (Epoch: 09 February)

Date Brightness Start Highest point End Pass type
(mag) Time Alt. Az. Time Alt. Az. Time Alt. Az.
09 Feb - 16:44:08 10° S 16:46:10 16° SE 16:48:12 10° ESE daylight
09 Feb - 18:18:57 10° WSW 18:22:06 49° SSE 18:25:16 10° E visible
09 Feb - 19:55:11 10° W 19:58:26 75° S 20:01:41 10° E visible
09 Feb - 21:31:38 10° W 21:34:43 41° SSW 21:37:48 10° SE visible
09 Feb - 23:09:12 10° WSW 23:10:32 12° SW 23:11:52 10° SSW night (unlit)
10 Feb - 17:26:33 10° SW 17:29:35 36° SSE 17:32:36 10° E daylight
10 Feb - 19:02:34 10° W 19:05:49 74° S 19:09:04 10° E visible
10 Feb - 20:38:59 10° W 20:42:10 54° SSW 20:45:21 10° ESE visible
10 Feb - 22:15:50 10° W 22:18:10 18° SW 22:20:30 10° SSE night (unlit)
11 Feb - 16:34:19 10° SSW 16:37:05 26° SSE 16:39:51 10° E daylight
11 Feb - 18:09:58 10° WSW 18:13:13 66° S 18:16:27 10° E visible
11 Feb - 19:46:21 10° W 19:49:35 67° S 19:52:48 10° ESE visible
11 Feb - 21:22:55 10° W 21:25:43 26° SSW 21:28:30 10° SSE visible
12 Feb - 15:42:22 10° S 15:44:38 18° SE 15:46:54 10° E daylight
12 Feb - 17:17:26 10° WSW 17:20:36 53° SSE 17:23:47 10° E daylight
12 Feb - 18:53:42 10° W 18:56:57 74° S 19:00:12 10° E visible
12 Feb - 20:30:10 10° W 20:33:12 37° SSW 20:36:15 10° SE visible
12 Feb - 22:08:24 10° SW 22:08:58 10° SW 22:09:33 10° SSW night (unlit)
13 Feb - 14:51:03 10° SSE 14:52:14 12° SE 14:53:24 10° ESE daylight
13 Feb - 16:24:58 10° SW 16:28:02 40° SSE 16:31:07 10° E daylight
13 Feb - 18:01:03 10° W 18:04:19 75° S 18:07:33 10° E daylight
13 Feb - 19:37:28 10° W 19:40:38 50° SSW 19:43:48 10° ESE visible
13 Feb - 21:14:28 10° WSW 21:16:35 16° SW 21:18:41 10° S visible
14 Feb - 15:32:37 10° SW 15:35:29 29° SSE 15:38:21 10° E daylight
14 Feb - 17:08:24 10° WSW 17:11:39 69° S 17:14:53 10° E daylight
14 Feb - 18:44:47 10° W 18:48:01 63° SSW 18:51:14 10° ESE visible
14 Feb - 20:21:26 10° W 20:24:07 24° SSW 20:26:47 10° SSE visible
15 Feb - 14:40:31 10° SSW 14:42:59 20° SSE 14:45:26 10° E daylight
15 Feb - 16:15:48 10° WSW 16:19:00 57° SSE 16:22:13 10° E daylight
15 Feb - 17:52:06 10° W 17:55:22 73° S 17:58:36 10° E daylight
15 Feb - 19:28:36 10° W 19:31:35 34° SSW 19:34:34 10° SE visible
16 Feb - 13:48:52 10° S 13:50:31 13° SE 13:52:10 10° ESE daylight
16 Feb - 15:23:15 10° SW 15:26:22 44° SSE 15:29:30 10° E daylight
16 Feb - 16:59:25 10° W 17:02:40 76° S 17:05:55 10° E daylight
16 Feb - 18:35:51 10° W 18:38:59 46° SSW 18:42:07 10° SE visible
16 Feb - 20:13:03 10° WSW 20:14:52 14° SW 20:16:41 10° S visible
17 Feb - 14:30:49 10° SW 14:33:46 32° SSE 14:36:44 10° E daylight
17 Feb - 16:06:44 10° WSW 16:09:59 71° S 16:13:14 10° E daylight
17 Feb - 17:43:07 10° W 17:46:20 60° SSW 17:49:32 10° ESE daylight
17 Feb - 19:19:50 10° W 19:22:24 21° SSW 19:24:55 10° SSE visible
18 Feb - 13:38:36 10° SSW 13:41:13 22° SSE 13:43:50 10° E daylight
18 Feb - 15:14:04 10° WSW 15:17:17 61° SSE 15:20:31 10° E daylight
18 Feb - 16:50:24 10° W 16:53:39 70° S 16:56:53 10° ESE daylight
18 Feb - 18:26:55 10° W 18:29:50 30° SSW 18:32:44 10° SE visible
